Regional Weather Roundup
Issued by NWS Kansas City/Pleasant Hill, MO

Home | Current Version | Previous Version | Graphics & Text | Print | Product List | Glossary Off
Versions: 1 2 3 4 5 6 7 8 9 10 11 12 13 14 15 16 17 18 19 20 21 22 23 24 25 26 27 28 29 30 31 32 33 34 35 36 37 38 39 40 41 42 43 44 45 46 47 48 49 50

000
ASUS43 KEAX 211104
RWREAX

WEATHER ROUNDUP FOR EASTERN KANSAS AND NORTHWEST MISSOURI
NATIONAL WEATHER SERVICE KANSAS CITY/PLEASANT HILL MO
600 AM CDT SUN SEP 21 2014

KSZ040-057-103>105-MOZ028-029-037-043-211200-
...KANSAS CITY METROPOLITAN AREA...

CITY           SKY/WX    TMP DP  RH WIND       PRES   REMARKS
K.C. INTL      CLEAR     60  51  72 NW3       30.10R
K.C. DOWNTOWN  CLEAR     62  52  69 CALM      30.09R
LEES SUMMIT    CLEAR     60  48  64 N3        30.10R
OLATHE - IXD   CLEAR     57  53  86 N5        30.11R
OLATHE - OJC   CLEAR     59  51  75 CALM      30.10R
LAWRENCE       CLEAR     53  52  96 N5        30.11R

$$

MOZ001>008-011>017-020>025-030>033-038>040-044>046-053-054-211200-
...NORTHERN AND CENTRAL MISSOURI...

CITY           SKY/WX    TMP DP  RH WIND       PRES   REMARKS
ST. JOSEPH     CLEAR     49  47  93 CALM      30.10R
MOSBY          SUNNY     55  52  88 CALM      30.08S
WHITEMAN AFB   CLEAR     58  52  80 N6        30.08R
CLINTON        CLEAR     63  54  72 N9        30.08R
SEDALIA        CLEAR     61  52  72 N7        30.08R
WARSAW         NOT AVBL
MARSHALL       CLEAR     59  54  82 SW3       30.08R
CHILLICOTHE      N/A     52  50  93 CALM      30.07S
MOBERLY        CLEAR     55  48  76 W5        30.05S
KIRKSVILLE     CLEAR     55  50  83 NW7       30.03S

$$

MOZ041-047>049-056>058-063>065-088>090-097-211200-
...EASTERN AND SOUTHERN MISSOURI...

CITY           SKY/WX    TMP DP  RH WIND       PRES   REMARKS
ST. LOUIS INTL NOT AVBL
SPIRIT OF STL  PTCLDY    69  61  75 N12G23    29.97R
COLUMBIA       CLEAR     61  53  75 N12       30.05R
JEFFERSON CITY CLEAR     66  57  72 N8        30.03R
MEXICO         CLEAR     59  55  88 NW6       30.04R
ROLLA          MOCLDY    69  67  93 NW10      30.00R
OSAGE BEACH    PTCLDY    70  64  83 N6        30.03R
SPRINGFIELD    PTCLDY    71  67  87 W6        30.04R
BRANSON        CLOUDY    72  66  83 W6        30.05S
NEVADA         CLEAR     64  59  82 N7        30.09R
JOPLIN         MOCLDY    70  69  97 W5        30.06R
WEST PLAINS    CLOUDY    68  66  93 W6        30.03R

$$

IAZ060-094-KSZ022-034>040-054-083-096-NEZ052-066-093-211200-
...KANSAS...SOUTHEAST NEBRASKA AND IOWA...

CITY           SKY/WX    TMP DP  RH WIND       PRES   REMARKS
TOPEKA         CLEAR     58  56  93 NW6       30.12R
MANHATTAN      CLEAR     56  54  93 CALM      30.14R
EMPORIA        CLEAR     61  58  90 N6        30.12R
CHANUTE        CLEAR     69  62  78 N12       30.08R
WICHITA        PTCLDY    70  57  63 NE14      30.11R
OMAHA          CLEAR     56  48  74 W7        30.12R
LINCOLN        CLEAR     55  48  77 CALM      30.17R
FALLS CITY     CLEAR     56  54  93 NW6       30.11R
LAMONI         CLEAR     52  49  89 W8        30.06R
DES MOINES     CLEAR     58  48  69 NW14      30.01R

$$



USA.gov is the U.S. government's official web portal to all federal, state and local government web resources and services.